Location: ?????
(54.9266°N, 38.5527°E)
Time: 15:41:07
(UTC+00:00)

CZ-4B DEB - Visible Passes

Search period start: 08 September 2024 00:00
Search period end: 18 September 2024 00:00
Orbit: 587 x 705 km, 98.8° (Epoch: 31 August)

Date Brightness Start Highest point End Pass type
(mag) Time Alt. Az. Time Alt. Az. Time Alt. Az.
08 Sep ? 00:04:45 10° ESE 00:08:22 22° NE 00:12:01 10° N visible
08 Sep ? 01:39:39 10° SSE 01:44:24 80° WSW 01:49:14 10° NNW visible
08 Sep ? 16:37:30 10° N 16:41:12 23° NW 16:44:49 10° WSW visible
09 Sep ? 00:29:13 10° ESE 00:33:24 31° ENE 00:37:37 10° N visible
09 Sep ? 02:05:07 10° S 02:09:45 51° W 02:14:27 10° NNW visible
09 Sep ? 17:03:16 10° NNW 17:06:10 16° NW 17:09:00 10° W visible
09 Sep ? 23:21:25 10° ENE 23:23:02 12° NE 23:24:39 10° NNE visible
10 Sep ? 00:53:58 10° SE 00:58:31 46° ENE 01:03:06 10° N visible
10 Sep ? 17:29:29 10° NNW 17:31:02 12° NW 17:32:36 10° WNW visible
10 Sep ? 23:45:01 10° E 23:47:55 16° NE 23:50:50 10° NNE visible
11 Sep ? 01:18:57 10° SSE 01:23:41 71° ENE 01:28:29 10° NNW visible
12 Sep ? 00:09:10 10° ESE 00:12:53 23° NE 00:16:35 10° N visible
12 Sep ? 01:44:11 10° SSE 01:48:57 76° WSW 01:53:46 10° NNW visible
12 Sep ? 16:42:07 10° N 16:45:41 22° NW 16:49:09 10° WSW visible
13 Sep ? 00:33:40 10° ESE 00:37:55 33° ENE 00:42:10 10° N visible
13 Sep ? 02:09:40 10° S 02:14:17 48° W 02:18:57 10° NNW visible
13 Sep ? 17:07:55 10° NNW 17:10:36 15° NW 17:13:15 10° W visible
13 Sep ? 23:25:41 10° ENE 23:27:29 12° NE 23:29:17 10° NNE visible
14 Sep ? 00:58:24 10° SE 01:03:00 48° ENE 01:07:37 10° N visible
14 Sep ? 17:34:19 10° NNW 17:35:28 11° NW 17:36:36 10° WNW visible
14 Sep ? 23:49:22 10° E 23:52:22 17° NE 23:55:22 10° N visible
15 Sep ? 01:23:24 10° SSE 01:28:11 74° ENE 01:32:58 10° NNW visible
15 Sep ? 16:21:04 10° N 16:25:05 30° WNW 16:28:59 10° WSW visible
16 Sep ? 00:13:33 10° ESE 00:17:19 24° NE 00:21:05 10° N visible
16 Sep ? 01:48:39 10° S 01:53:26 72° WSW 01:58:13 10° NNW visible
16 Sep ? 16:46:41 10° N 16:50:04 21° NW 16:53:23 10° W visible
17 Sep ? 00:38:03 10° SE 00:42:20 34° ENE 00:46:37 10° N visible
17 Sep ? 02:14:10 10° S 02:18:45 46° W 02:23:22 10° NNW visible
17 Sep ? 17:12:30 10° NNW 17:14:58 15° NW 17:17:24 10° W visible
17 Sep ? 23:29:56 10° ENE 23:31:52 12° NE 23:33:48 10° NNE visible
